Bookmark and Share
Track history (hours):
 

Twizzle

Last reported at 2014-Apr-23 23:31 UTC. Time now 2014-Apr-24 00:24 UTC.
Position N 39°34' E 002°38'.

Length 58 m; draft 3.8 m.

Type: Sailing vessel. MMSI: 235079813.

NotesDate/timePositionNaut miles runAvg speedWind from/ knotsBaromVisibWave heightAir tempDewpointWater temp
2014-Apr-23 23:31N 39°34' E 002°38'0 0.0
2014-Apr-23 22:32N 39°34' E 002°38'0 0.0
2014-Apr-23 21:31N 39°34' E 002°38'0 0.0
2014-Apr-23 20:31N 39°34' E 002°38'0 0.0
2014-Apr-23 19:31N 39°34' E 002°38'0 0.0
2014-Apr-23 18:31N 39°34' E 002°38'0 0.0
2014-Apr-23 17:31N 39°34' E 002°38'0 0.0
2014-Apr-23 16:31N 39°34' E 002°38'0 0.0
2014-Apr-23 15:31N 39°34' E 002°38'0 0.0
2014-Apr-23 14:31N 39°34' E 002°38'0 0.0
2014-Apr-23 13:31N 39°34' E 002°38'0 0.0
2014-Apr-23 12:31N 39°34' E 002°38'0 0.0
2014-Apr-23 11:31N 39°34' E 002°38'0 0.0
2014-Apr-23 10:31N 39°34' E 002°38'0 0.0
2014-Apr-23 09:31N 39°34' E 002°38'0 0.0
2014-Apr-23 08:34N 39°34' E 002°38'6 6.3
2014-Apr-23 07:33N 39°28' E 002°40'6 5.9
2014-Apr-23 06:29N 39°34' E 002°38'0 0.0
2014-Apr-23 05:29N 39°34' E 002°38'0 0.0
2014-Apr-23 04:32N 39°34' E 002°38'0 0.0
2014-Apr-23 03:32N 39°34' E 002°38'0 0.0
2014-Apr-23 02:32N 39°34' E 002°38'0 0.0
2014-Apr-23 01:32N 39°34' E 002°38'0 0.0
2014-Apr-23 00:32N 39°34' E 002°38'0 0.0
2014-Apr-22 23:32N 39°34' E 002°38'0 0.0
2014-Apr-22 22:32N 39°34' E 002°38'0 0.0
2014-Apr-22 21:32N 39°34' E 002°38'0 0.0
2014-Apr-22 20:32N 39°34' E 002°38'0 0.0
2014-Apr-22 19:32N 39°34' E 002°38'0 0.0
2014-Apr-22 18:32N 39°34' E 002°38'0 0.0
2014-Apr-22 17:32N 39°34' E 002°38'0 0.0
2014-Apr-22 16:32N 39°34' E 002°38'0 0.0
2014-Apr-22 15:32N 39°34' E 002°38'0 0.0
2014-Apr-22 14:32N 39°34' E 002°38'0 0.0
2014-Apr-22 13:32N 39°34' E 002°38'0 0.0
2014-Apr-22 12:32N 39°34' E 002°38'0 0.0
2014-Apr-22 11:32N 39°34' E 002°38'0 0.0
2014-Apr-22 10:29N 39°34' E 002°38'0 0.0
2014-Apr-22 09:32N 39°34' E 002°38'0 0.0
2014-Apr-22 08:32N 39°34' E 002°38'0 0.0
2014-Apr-22 07:32N 39°34' E 002°38'0 0.0
2014-Apr-22 06:32N 39°34' E 002°38'0 0.0
2014-Apr-22 05:32N 39°34' E 002°38'0 0.0
2014-Apr-22 04:32N 39°34' E 002°38'0 0.0
2014-Apr-22 03:32N 39°34' E 002°38'0 0.0
2014-Apr-22 02:32N 39°34' E 002°38'0 0.0
2014-Apr-22 01:32N 39°34' E 002°38'0 0.0
2014-Apr-22 00:32N 39°34' E 002°38'0 0.0
2014-Apr-21 23:32N 39°34' E 002°38'0 0.0
2014-Apr-21 22:32N 39°34' E 002°38'0 0.0
2014-Apr-21 21:32N 39°34' E 002°38'0 0.0
2014-Apr-21 20:29N 39°34' E 002°38'0 0.0
2014-Apr-21 19:32N 39°34' E 002°38'0 0.0
2014-Apr-21 18:23N 39°34' E 002°38'0 0.0
2014-Apr-21 17:09N 39°34' E 002°38'0 0.0
2014-Apr-21 14:06N 39°34' E 002°38'0 0.0
2014-Apr-21 12:22N 39°34' E 002°38'0 0.0
2014-Apr-21 11:32N 39°34' E 002°38'0 0.0
2014-Apr-21 10:32N 39°34' E 002°38'0 0.0
2014-Apr-21 09:19N 39°34' E 002°38'0 0.0
2014-Apr-21 07:24N 39°34' E 002°38'0 0.0
2014-Apr-21 06:32N 39°34' E 002°38'0 0.0
2014-Apr-21 05:32N 39°34' E 002°38'0 0.0
2014-Apr-21 04:32N 39°34' E 002°38'0 0.0
2014-Apr-21 03:32N 39°34' E 002°38'0 0.0
2014-Apr-21 02:32N 39°34' E 002°38'0 0.0
2014-Apr-21 01:32N 39°34' E 002°38'0 0.0
2014-Apr-21 00:32N 39°34' E 002°38'0 0.0
2014-Apr-20 23:32N 39°34' E 002°38'0 0.0
2014-Apr-20 22:32N 39°34' E 002°38'0 0.0
2014-Apr-20 19:21N 39°34' E 002°38'0 0.0
2014-Apr-20 17:08N 39°34' E 002°38'0 0.0
2014-Apr-20 08:08N 39°34' E 002°38'2 2.7
2014-Apr-20 07:33N 39°32' E 002°39'1 0.7
2014-Apr-20 06:33N 39°32' E 002°38'5 5.4
2014-Apr-20 05:33N 39°28' E 002°34'1311.3
2014-Apr-20 04:24N 39°18' E 002°24'1011.6
2014-Apr-20 03:33N 39°10' E 002°15'1312.4
2014-Apr-20 02:32N 39°01' E 002°04'1212.0
2014-Apr-20 01:33N 38°52' E 001°54'1312.3
2014-Apr-20 00:30N 38°42' E 001°43'5711.4
2014-Apr-19 19:31N 38°08' E 000°46'1111.1
2014-Apr-19 18:30N 38°01' E 000°34'1511.7
2014-Apr-19 17:10N 37°51' E 000°18'711.4
2014-Apr-19 16:33N 37°47' E 000°11'2013.7
2014-Apr-19 15:05N 37°35' W 000°09'29 9.7
2014-Apr-19 12:08N 37°18' W 000°38'4011.0
2014-Apr-19 08:32N 36°54' W 001°18'18511.6
2014-Apr-18 16:32N 36°07' W 005°01'1212.6
2014-Apr-18 15:33N 36°06' W 005°16'6 6.1
2014-Apr-18 14:33N 36°09' W 005°23'1111.3
2014-Apr-18 13:33N 35°58' W 005°27'  
2014-Apr-15 14:20N 37°21' W 023°21'9 4.9
2014-Apr-15 12:34N 37°22' W 023°31'1111.1
2014-Apr-15 11:34N 37°24' W 023°45'1111.1
2014-Apr-15 10:34N 37°25' W 023°59'1111.3
2014-Apr-15 09:34N 37°26' W 024°13'1111.2
2014-Apr-15 08:34N 37°28' W 024°27'1111.2
2014-Apr-15 07:34N 37°29' W 024°41'1110.8
2014-Apr-15 06:34N 37°31' W 024°55'1110.9
2014-Apr-15 05:34N 37°32' W 025°09'2211.0
2014-Apr-15 03:34N 37°35' W 025°36'1111.1
2014-Apr-15 02:34N 37°37' W 025°50'1110.9
2014-Apr-15 01:34N 37°41' W 026°03'1110.9
2014-Apr-15 00:34N 37°45' W 026°16'1111.3
2014-Apr-14 23:34N 37°49' W 026°29'1111.3
2014-Apr-14 22:34N 37°53' W 026°42'1111.3
2014-Apr-14 21:34N 37°57' W 026°56'1111.1
2014-Apr-14 20:34N 38°01' W 027°09'1111.2
2014-Apr-14 19:34N 38°04' W 027°22'1111.1
2014-Apr-14 18:34N 38°08' W 027°35'1110.8
2014-Apr-14 17:34N 38°12' W 027°48'1111.3
2014-Apr-14 16:33N 38°16' W 028°02'1111.3
2014-Apr-14 15:34N 38°20' W 028°15'1111.3
2014-Apr-14 14:33N 38°24' W 028°29'1010.1
2014-Apr-14 13:33N 38°32' W 028°37'0 0.0
2014-Apr-14 11:32N 38°32' W 028°38'0 0.0
2014-Apr-14 10:33N 38°32' W 028°38'0 0.0
2014-Apr-14 09:32N 38°32' W 028°38'0 0.0
2014-Apr-14 07:29N 38°32' W 028°38'0 0.0
2014-Apr-14 05:32N 38°32' W 028°38'  

Dump ship's entire track history

sailing weather and tide predictions

Twizzle — 2DKS5 — position and weather